Location: Unspecified
(34.4950°S, 58.5160°W)
Time: 00:27:49
(UTC+00:00)

CENTAUR R/B - Pass Details

Date: 19 April 2026
Orbit: 623 x 1557 km, 63.4° (Epoch: 16 May)

Event Time Altitude Azimuth Distance (km) Brightness Sun altitude
Exits shadow 08:20:17 - 192° (SSW) 2,384 4.5 -25.4°
Reaches altitude 10° 08:20:36 10° 190° (S) 2,278 4.4 -25.4°
Maximum altitude 08:24:54 27° 132° (SE) 1,291 3.6 -24.5°
Drops below altitude 10° 08:28:46 10° 72° (ENE) 2,027 5.1 -23.7°
Sets 08:31:13 0° 59° (ENE) 2,904 5.9 -23.2°
